STARLINK-30394, 57810

Orbit data source: Space-Track

STARLINK-30394, 57810 is a payload satellite owned by SpaceX/Seattle (US) in LEO that was launched on Sat, 09 Sep 2023 UTC via an FALCON 9 launch vehicle from the Air Force Eastern Test Range (AFETR). Payload-class satellites include a variety of spacecraft equipped with specific instruments for various scientific and technological missions. These include communications satellites like Starlink; space stations such as the ISS; scientific satellites like the Hubble; Earth observation satellites from companies like Planet Labs, Umbra, and HawkEye 360; GPS; miniature CubeSats for education and research; and military/defense satellites.

Loading next visibility...
Identifier
57810, 2023-138C
Orbit
LEO
Country
Flag of USUS
Related business
Manufacturer
SpaceX/Seattle
Mission
Operational Commercial Communications
Bus & Motor
STARLINK V2M, Unknown motor
Mass
730 kg wet, ~700 kg dry
Launch date (UTC)
2023-09-09 (3 years ago)
Launch vehicle
FALCON 9
Launch site
Air Force Eastern Test Range (AFETR)
Object type
Payload
Rocket body
Debris
Shape & HBR
Box + 2 Pan, 17.7 m
Radar Cross Section
33.884 m², Large (>1 m²)

Expand to show TLE details & history
Last TLE update: 2 days ago

TLE from 2 days ago
0 STARLINK-30394
1 57810U 23138C   26170.98191549  .00021020  00000-0  77083-3 0  9993
2 57810  43.0010  16.4043 0000990 279.6952  80.3787 15.27596200154287
Epoch: 2026-06-19T23:33Z
TLE epoch observation values (Epoch: 2026-06-19T23:33:57.498Z)
Latitude
-0.00007°
Longitude
114.71157°
Altitude
482.663 km
Speed
7.626 km/s
True Right ascension
01h 05m 37s
True Declination
0° 00' 00"
Sunlit
Object was in daylight at epoch
Visualization orbit readout
Latitude
Unknown
Longitude
Unknown
Altitude
Unknown
Speed
Unknown
Apparent Right ascension
Unknown
Apparent Declination
Unknown
Sunlit
N/A
Visualization observer readout
Local Sidereal Time
21:33:46
Azimuth
Unknown
Elevation
Unknown
Doppler factor
Unknown
Orbital elements
Apogee altitude
485.625 km
Perigee altitude
484.266 km
Semi-major axis
6,863.083 km
Eccentricity
0.0001
Inclination
43.001°
RAAN
16.4043°
Arg. of periapsis
279.6952°
True anomaly
80.38989°
Mean anomaly
80.3787°
Eccentric anomaly
80.38429°
Mean motion
3.81737 °/min
Orbital period
94.31 mins
BSTAR
0.00077083
Loading maneuver chart data...
Computing Atmospheric mass density...
Loading historical data...
Loading historical data...
Loading historical data...
Loading historical data...
Loading historical data...
Loading historical data...
Loading historical data...

Documentation

Showing up to 5 results
|